Tracking 19792 objects as of 15-Jul-2019
HD Live streaming from Space Station
objects crossing your sky now

MOLNIYA 3-41

Track MOLNIYA 3-41 now!
MOLNIYA 3-41 is classified as:


NORAD ID: 21706
Int'l Code: 1991-065A
Perigee: 1,790.8 km
Apogee: 37,929.2 km
Inclination: 64.3 °
Period: 704.7 minutes
Semi major axis: 26230 km
RCS: 14.2786 m2 (large)
Launch date: September 17, 1991
Source: Commonwealth of Independent States (former USSR) (CIS)
Launch site: PLESETSK MISSILE AND SPACE COMPLEX (PKMTR)
aabbcc
Your satellite tracking list
Your tracking list is empty




NASA's NSSDC Master Catalog

Two Line Element Set (TLE):
1 21706U 91065A   19196.20547630 -.00000629  00000-0  63147-1 0  9990
2 21706  64.3065 279.4625 6888480 267.9674  51.5219  2.04352896205100
Source of the keplerian elements: AFSPC